AirNav   TITAN Aviation Fuels
 
 617 users online  

O61 Cameron Park Airport
Cameron Park, California, USA

GOING TO CAMERON PARK?


FAA INFORMATION EFFECTIVE 26 JANUARY 2023

Location

FAA Identifier: O61
Lat/Long: 38-41-02.4000N 120-59-15.1000W
38-41.040000N 120-59.251667W
38.6840000,-120.9875278
(estimated)
Elevation: 1287.3 ft. / 392 m (estimated)
Variation: 16E (1985)
Time zone: UTC -8 (UTC -7 during Daylight Saving Time)
Zip code: 95682

Airport Operations

Airport use: Open to the public
Activation date: 12/1967
Control tower: no
ARTCC: OAKLAND CENTER
FSS: RANCHO MURIETA FLIGHT SERVICE STATION
NOTAMs facility: RIU (NOTAM-D service available)
Attendance: MON-FRI 0800-1700
Pattern altitude: 2301.3 ft. MSL
Wind indicator: yes
Segmented circle: yes
Lights: ACTVT MIRL RY 13/31 - CTAF.

Airport Communications

CTAF/UNICOM: 123.05
WX AWOS-1: 120.0 (530-677-5392)
WX AWOS-3 at PVF (11 nm E): 128.125 (530-622-5698)
WX AWOS-3PT at MHR (16 nm SW): 118.325 (916-366-3371)
WX AWOS-3 at AUN (17 nm N): 119.375 (530-888-8934)
WX AWOS-3 at MCC (19 nm W): 125.975 (916-641-1272)

Nearby radio navigation aids

VOR radial/distance  VOR name  Freq  Var
HNWr241/11.4HANGTOWN VOR/DME115.5017E
MCCr070/19.5MC CLELLAN VOR/DME109.2017E
SACr044/30.1SACRAMENTO VORTAC115.2017E
LINr344/36.6LINDEN VOR/DME114.8017E
MYVr116/37.0MARYSVILLE VOR/DME110.8016E

Airport Services

Fuel available: 100LL
100LL:FUEL AVBL 24 HRS BY CREDIT CARD
Parking: tiedowns
Airframe service: MAJOR
Powerplant service: MAJOR
Bottled oxygen: NONE
Bulk oxygen: NONE

Runway Information

Runway 13/31

Dimensions: 4051 x 50 ft. / 1235 x 15 m
Surface: asphalt, in fair condition
Weight bearing capacity: 
Single wheel: GROSS PAVEMENT STRENGTH ESTIMATED BY OWNER 12500 LBS.
Runway edge lights: medium intensity
RUNWAY 13  RUNWAY 31
Latitude: 38-41.308418N38-40.769833N
Longitude: 120-59.502480W120-58.999823W
Elevation: 1287.3 ft.1267.3 ft.
Traffic pattern: leftleft
Runway heading: 128 magnetic, 144 true308 magnetic, 324 true
Displaced threshold: 193 ft.1509 ft.
Markings: basic, in good conditionbasic, in good condition
Visual slope indicator: pulsating/steady burning VASI on left (6.00 degrees glide path)
Runway end identifier lights: nono
Touchdown point: yes, no lightsyes, no lights
Obstructions: 40 ft. tree, 410 ft. from runway, 125 ft. left of centerline, 10:1 slope to clear
+65 FT TREE, 150 FT FROM EOR, 125 FT LEFT OF RWY CENTERLINE
240 ft. tree, 2190 ft. from runway, 300 ft. right of centerline, 9:1 slope to clear
+8 FT GND 200 FT FM EOR.

Airport Ownership and Management from official FAA records

Ownership: Publicly-owned
Owner: CAMERON PARK ARPT DISTRICT
3374 MIRA LOMA DRIVE
CAMERON PARK, CA 95682
Phone 530-676-8316
Manager: DOMINIC COUTCHES
3374 MIRA LOMA DRIVE
CAMERON PARK, CA 95682
Phone 530-676-8316

Airport Operational Statistics

Aircraft based on the field: 50
Single engine airplanes: 46
Multi engine airplanes: 4
    
Aircraft operations: avg 99/day *
70% local general aviation
28% transient general aviation
2% air taxi
* for 12-month period ending 31 December 2017

Additional Remarks

FOR CD CTC NORCAL APCH AT 916-361-6874.
DO NOT CONFUSE PARL RESIDENTIAL STREETS ON BOTH SIDES OF ARPT WITH THE RWY.
1597 FT HILL UNLGTD .5 NM SE OF ARPT.
FOR NOISE ABATEMENT PROCEDURES CALL AMGR (530) 676-8316
RY 13/31 WEST SIDE 60 FT GATES IN PERIMETER FENCING TO PROVIDE ACCESS TO RESIDENTIAL AREA FOR RESIDENTS AND INVITED GUESTS.
RY 13/31 RESTRICTED TO USE BY ACFT WITH LESS THAN A MAXIMUM CERTIFICATED GWT OF 12,500 LBS AND WINGSPAN LESS THAN 50 FT.
HELICOPTER PARKING NOT AUTHORIZED.
MIGRATORY GEESE IN VNCTY OF ARPT.

Instrument Procedures

There are no published instrument procedures at O61.

Some nearby airports with instrument procedures:

KPVF - Placerville Airport (11 nm E)
KMHR - Sacramento Mather Airport (16 nm SW)
KAUN - Auburn Municipal Airport (17 nm N)
KMCC - Mc Clellan Airfield (19 nm W)
KJAQ - Westover Field / Amador County Airport (21 nm SE)
 
Loc | Ops | Rwys | IFR | FBO | Links
Com | Nav | Svcs | Stats | Notes
Area around O61 (Cameron Park Airport)
 
Road maps at: MapQuest Bing Google
 
Aerial photo
WARNING: Photo may not be current or correct
Aerial photo of O61 (Cameron Park Airport)
Do you have a better or more recent aerial photo of Cameron Park Airport that you would like to share? If so, please send us your photo.

 
Sectional chart

 
Airport distance calculator
Flying to Cameron Park Airport? Find the distance to fly.

From to O61

Sunrise and sunset
Times for 29-Jan-2023
 Local
(UTC-8)
 Zulu
(UTC)
Morning civil twilight06:4514:45
Sunrise07:1315:13
Sunset17:2101:21
Evening civil twilight17:4901:49

Current date and time
Zulu (UTC)  29-Jan-2023 11:26:32
Local (UTC-8)  29-Jan-2023 03:26:32
 
METAR
KPVF 
11nm E 
291115Z AUTO 18006KT 9SM BKN005 OVC009 03/03 A2983 RMK AO1
KMHR 
17nm SW 
291115Z AUTO 14007KT 10SM OVC043 07/06 A2984 RMK A01
KAUN 
17nm N 
291115Z AUTO 11008KT 10SM OVC025 06/04 A2983 RMK A01
KMCC 
19nm W 
291115Z AUTO 12007KT 10SM BKN020 OVC037 07/05 A2985 RMK AO2
KJAQ 
21nm SE 
291115Z AUTO 00000KT 10SM OVC011 05/05 A2984 RMK AO1 T00520052
KLHM 
22nm NW 
291115Z AUTO 14008KT 10SM OVC035 06/05 A2984 RMK AO1
TAF
KMHR 
17nm SW 
290534Z 2906/3006 VRB05KT P6SM FEW250 FM290900 VRB03KT 6SM BR BKN050 FM291200 16008KT 4SM BR BKN025 FM291600 VRB06KT P6SM VCSH BKN030 FM300100 34011KT P6SM BKN030 FM300500 34015G25KT P6SM SCT050
KMCC 
19nm W 
290534Z 2906/3006 VRB04KT P6SM FEW250 FM290900 VRB03KT 6SM BR BKN050 FM291200 15007KT 4SM BR OVC025 FM291600 VRB06KT P6SM VCSH BKN030 FM300100 34011KT P6SM BKN030 FM300500 34015G25KT P6SM SCT050
NOTAMs
Click for the latest NOTAMs
NOTAMs are issued by the DoD/FAA and will open in a separate window not controlled by AirNav.

 

 
 

FBO, Fuel Providers, and Aircraft Ground Support

  
 Business Name 
 
 Contact 
 
 Services / Description 
 
Fuel Prices
 
Comments
  
Cameron Park Airport 530-676-8316
[web site]
[email]
Airport management, Aviation fuel, Aircraft parking (ramp or tiedown), Hangar leasing / sales, Flight training, Aircraft maintenance, Aircraft modifications, ...

More info about Cameron Park Airport
EPIC
100LL
SS $6.48 
 Updated 03-Jan-2023
 
   write
SS=Self service
Update Fuel Prices
 

Would you like to see your business listed on this page?

 If your business provides an interesting product or service to pilots, flight crews, aircraft, or users of the Cameron Park Airport, you should consider listing it here.  To start the listing process, click on the button below
 
Add a business
 

Other Pages about Cameron Park Airport

www.cameronparkairport.org
 
Update a link
 
Copyright © AirNav, LLC. All rights reserved. Privacy Policy  Contact